Regional Weather Roundup
Issued by NWS

Home | Current Version | Previous Version | Text Only | Print | Product List | Glossary On
Versions: 1 2 3 4 5 6 7 8 9 10 11 12 13 14 15 16 17 18 19 20 21 22 23 24 25 26 27 28 29 30 31 32 33 34 35 36 37 38 39 40 41 42 43 44 45 46 47 48 49 50
000
ASUS44 KJAN 221410
RWRMS

MISSISSIPPI HOURLY WEATHER ROUNDUP
NATIONAL WEATHER SERVICE JACKSON MS
900 AM CDT WED OCT 22 2014

NOTE: "FAIR: INDICATES FEW OR NO CLOUDS BELOW 12,000 FEET WITH NO
SIGNIFICANT WEATHER AND/OR OBSTRUCTIONS TO VISIBILITY.

MSZ001>002-007>008-010>013-018>021-025>028-034>036-221500-
NORTHWEST MISSISSIPPI

CITY           SKY/WX    TMP DP  RH WIND       PRES   REMARKS
CLARKSDALE     FAIR      54  50  87 N6        30.23R
CLEVELAND      FAIR      57  51  81 NE12      30.20R
GREENWOOD      SUNNY     57  49  74 E9        30.19R
GREENVILLE     SUNNY     58  50  75 NE13      30.18R
GRENADA          N/A    N/A N/A N/A MISG        N/A
OLIVE BRANCH   SUNNY     52  48  87 NE5       30.24R
OXFORD         FAIR      50  45  81 NE5       30.24R
TUNICA         SUNNY     54  48  82 NE7       30.24R
$$

MSZ003>006-009-014>017-022>024-029>033-037>039-221500-
NORTHEAST MISSISSIPPI

CITY           SKY/WX    TMP DP  RH WIND       PRES   REMARKS
COLUMBUS AFB   SUNNY     54  47  78 NE8       30.20R
CORINTH        FAIR      52  46  82 NE5       30.24R
STARKVILLE     FAIR      55  48  76 NE9       30.20R
TUPELO         SUNNY     53  45  74 NE12      30.21R
$$

MSZ040-058-221500-
CENTRAL MISSISSIPPI

CITY           SKY/WX    TMP DP  RH WIND       PRES   REMARKS
JACKSON INTL   SUNNY     59  52  77 NE7       30.16R
JACKSON HAWKNS SUNNY     61  52  72 E7        30.16R
MERIDIAN KEY   SUNNY     57  50  77 NE9       30.16R
MERIDIAN NAS   SUNNY     57  50  77 NE6       30.17R
RAYMOND        FAIR      55  50  82 MISG      30.16R
VICKSBURG      SUNNY     61  54  77 NE5       30.16R
$$

MSZ059>079-221500-
SOUTH MISSISSIPPI

CITY           SKY/WX    TMP DP  RH WIND       PRES   REMARKS
BROOKHAVEN     FAIR      59  54  82 N3        30.16R
COLUMBIA         N/A    N/A N/A N/A MISG        N/A
HATTIESBURG    SUNNY     61  53  75 N3        30.13R
MCCOMB         SUNNY     63  51  65 VRB3      30.13R
NATCHEZ        SUNNY     63  55  77 NE9       30.14R
PINE BELT      SUNNY     61  50  67 NE7       30.14R
$$

MSZ080>082-221500-
COASTAL MISSISSIPPI

CITY           SKY/WX    TMP DP  RH WIND       PRES   REMARKS
BAY ST LOUIS   SUNNY     64  52  63 NE7       30.10R
BILOXI         SUNNY     64  54  69 NE9       30.10R
PASCAGOULA     SUNNY     62  55  77 NE8       30.09R
GULFPORT       SUNNY     64  53  67 N8        30.09R
$$



USA.gov is the U.S. government's official web portal to all federal, state and local government web resources and services.